Time,TemperatureF,DewpointF,PressureIn,WindDirection,WindDirectionDegrees,WindSpeedMPH,WindSpeedGustMPH,Humidity,HourlyPrecipIn,Conditions,Clouds,dailyrainin,SoftwareType,DateUTC
2013-08-21 00:01:00,72.3,66.3,29.92,North,-999,-999.0,-999.0,83,-99.99,,,-99.99,,2013-08-21 04:01:00,
2013-08-21 00:06:00,72.3,66.4,29.92,North,-999,-999.0,-999.0,83,-99.99,,,-99.99,,2013-08-21 04:06:00,
2013-08-21 00:11:00,72.3,66.3,29.92,North,-999,-999.0,-999.0,83,-99.99,,,-99.99,,2013-08-21 04:11:00,
2013-08-21 00:16:00,72.1,66.3,29.92,North,-999,-999.0,-999.0,83,-99.99,,,-99.99,,2013-08-21 04:16:00,
2013-08-21 00:21:00,71.9,66.1,29.92,North,-999,-999.0,-999.0,83,-99.99,,,-99.99,,2013-08-21 04:21:00,
2013-08-21 00:26:00,71.7,66.0,29.92,North,-999,-999.0,-999.0,83,-99.99,,,-99.99,,2013-08-21 04:26:00,
2013-08-21 00:31:00,71.6,66.1,29.92,North,-999,-999.0,-999.0,84,-99.99,,,-99.99,,2013-08-21 04:31:00,
2013-08-21 00:36:00,71.4,65.9,29.92,North,-999,-999.0,-999.0,84,-99.99,,,-99.99,,2013-08-21 04:36:00,
2013-08-21 00:41:00,71.4,66.3,29.92,North,-999,-999.0,-999.0,85,-99.99,,,-99.99,,2013-08-21 04:41:00,
2013-08-21 00:46:00,71.0,65.9,29.92,North,-999,-999.0,-999.0,85,-99.99,,,-99.99,,2013-08-21 04:46:00,
2013-08-21 00:51:00,71.0,65.9,29.92,North,-999,-999.0,-999.0,85,-99.99,,,-99.99,,2013-08-21 04:51:00,
2013-08-21 00:56:00,71.0,65.6,29.92,North,-999,-999.0,-999.0,85,-99.99,,,-99.99,,2013-08-21 04:56:00,
2013-08-21 01:01:00,70.8,65.6,29.92,North,-999,-999.0,-999.0,85,-99.99,,,-99.99,,2013-08-21 05:01:00,
2013-08-21 01:06:00,70.8,65.7,29.92,North,-999,-999.0,-999.0,85,-99.99,,,-99.99,,2013-08-21 05:06:00,
2013-08-21 01:11:00,70.7,65.7,29.92,North,-999,-999.0,-999.0,85,-99.99,,,-99.99,,2013-08-21 05:11:00,
2013-08-21 01:16:00,70.5,65.4,29.92,North,-999,-999.0,-999.0,85,-99.99,,,-99.99,,2013-08-21 05:16:00,
2013-08-21 01:21:00,70.5,65.3,29.92,North,-999,-999.0,-999.0,85,-99.99,,,-99.99,,2013-08-21 05:21:00,
2013-08-21 01:26:00,70.5,65.3,29.92,North,-999,-999.0,-999.0,85,-99.99,,,-99.99,,2013-08-21 05:26:00,
2013-08-21 01:31:00,70.7,65.7,29.92,North,-999,-999.0,-999.0,86,-99.99,,,-99.99,,2013-08-21 05:31:00,
2013-08-21 01:36:00,70.3,65.5,29.92,North,-999,-999.0,-999.0,86,-99.99,,,-99.99,,2013-08-21 05:36:00,
2013-08-21 01:41:00,70.3,65.3,29.93,North,-999,-999.0,-999.0,86,-99.99,,,-99.99,,2013-08-21 05:41:00,
2013-08-21 01:46:00,70.1,65.4,29.93,North,-999,-999.0,-999.0,86,-99.99,,,-99.99,,2013-08-21 05:46:00,
2013-08-21 01:51:00,70.3,65.7,29.92,North,-999,-999.0,-999.0,87,-99.99,,,-99.99,,2013-08-21 05:51:00,
2013-08-21 01:56:00,70.5,65.9,29.92,North,-999,-999.0,-999.0,87,-99.99,,,-99.99,,2013-08-21 05:56:00,
2013-08-21 02:01:00,70.5,65.8,29.92,North,-999,-999.0,-999.0,86,-99.99,,,-99.99,,2013-08-21 06:01:00,
2013-08-21 02:06:00,70.5,65.9,29.92,North,-999,-999.0,-999.0,87,-99.99,,,-99.99,,2013-08-21 06:06:00,
2013-08-21 02:11:00,70.5,65.8,29.92,North,-999,-999.0,-999.0,86,-99.99,,,-99.99,,2013-08-21 06:11:00,
2013-08-21 02:16:00,70.3,65.5,29.92,North,-999,-999.0,-999.0,86,-99.99,,,-99.99,,2013-08-21 06:16:00,
2013-08-21 02:21:00,70.3,65.5,29.92,North,-999,-999.0,-999.0,86,-99.99,,,-99.99,,2013-08-21 06:21:00,
2013-08-21 02:26:00,70.1,65.3,29.92,North,-999,-999.0,-999.0,86,-99.99,,,-99.99,,2013-08-21 06:26:00,
2013-08-21 02:31:00,69.9,65.2,29.92,North,-999,-999.0,-999.0,86,-99.99,,,-99.99,,2013-08-21 06:31:00,
2013-08-21 02:36:00,69.8,65.1,29.93,North,-999,-999.0,-999.0,86,-99.99,,,-99.99,,2013-08-21 06:36:00,
2013-08-21 02:41:00,69.6,64.9,29.93,North,-999,-999.0,-999.0,86,-99.99,,,-99.99,,2013-08-21 06:41:00,
2013-08-21 02:46:00,69.6,64.9,29.93,North,-999,-999.0,-999.0,86,-99.99,,,-99.99,,2013-08-21 06:46:00,
2013-08-21 02:51:00,69.6,64.9,29.93,North,-999,-999.0,-999.0,86,-99.99,,,-99.99,,2013-08-21 06:51:00,
2013-08-21 02:56:00,69.6,65.0,29.93,North,-999,-999.0,-999.0,87,-99.99,,,-99.99,,2013-08-21 06:56:00,
2013-08-21 03:01:00,69.4,64.8,29.93,North,-999,-999.0,-999.0,87,-99.99,,,-99.99,,2013-08-21 07:01:00,
2013-08-21 03:06:00,69.4,64.9,29.93,North,-999,-999.0,-999.0,87,-99.99,,,-99.99,,2013-08-21 07:06:00,
2013-08-21 03:11:00,69.2,64.9,29.93,North,-999,-999.0,-999.0,87,-99.99,,,-99.99,,2013-08-21 07:11:00,
2013-08-21 03:16:00,69.2,64.8,29.93,North,-999,-999.0,-999.0,87,-99.99,,,-99.99,,2013-08-21 07:16:00,
2013-08-21 03:21:00,69.0,64.6,29.93,North,-999,-999.0,-999.0,87,-99.99,,,-99.99,,2013-08-21 07:21:00,
2013-08-21 03:26:00,68.9,64.7,29.93,North,-999,-999.0,-999.0,88,-99.99,,,-99.99,,2013-08-21 07:26:00,
2013-08-21 03:31:00,68.7,64.4,29.93,North,-999,-999.0,-999.0,88,-99.99,,,-99.99,,2013-08-21 07:31:00,
2013-08-21 03:36:00,68.7,64.3,29.93,North,-999,-999.0,-999.0,87,-99.99,,,-99.99,,2013-08-21 07:36:00,
2013-08-21 03:41:00,68.7,64.3,29.93,North,-999,-999.0,-999.0,87,-99.99,,,-99.99,,2013-08-21 07:41:00,
2013-08-21 03:46:00,68.7,64.4,29.93,North,-999,-999.0,-999.0,87,-99.99,,,-99.99,,2013-08-21 07:46:00,
2013-08-21 03:51:00,68.5,64.1,29.93,North,-999,-999.0,-999.0,87,-99.99,,,-99.99,,2013-08-21 07:51:00,
2013-08-21 03:56:00,68.5,64.2,29.93,North,-999,-999.0,-999.0,88,-99.99,,,-99.99,,2013-08-21 07:56:00,
2013-08-21 04:01:00,68.3,64.0,29.93,North,-999,-999.0,-999.0,88,-99.99,,,-99.99,,2013-08-21 08:01:00,
2013-08-21 04:06:00,68.5,64.3,29.93,North,-999,-999.0,-999.0,88,-99.99,,,-99.99,,2013-08-21 08:06:00,
2013-08-21 04:11:00,68.5,64.2,29.93,North,-999,-999.0,-999.0,88,-99.99,,,-99.99,,2013-08-21 08:11:00,
2013-08-21 04:16:00,68.5,64.2,29.93,North,-999,-999.0,-999.0,88,-99.99,,,-99.99,,2013-08-21 08:16:00,
2013-08-21 04:21:00,68.3,64.1,29.93,North,-999,-999.0,-999.0,88,-99.99,,,-99.99,,2013-08-21 08:21:00,
2013-08-21 04:26:00,68.3,64.1,29.93,North,-999,-999.0,-999.0,88,-99.99,,,-99.99,,2013-08-21 08:26:00,
2013-08-21 04:31:00,68.1,63.9,29.93,North,-999,-999.0,-999.0,88,-99.99,,,-99.99,,2013-08-21 08:31:00,
2013-08-21 04:36:00,68.1,63.9,29.93,North,-999,-999.0,-999.0,88,-99.99,,,-99.99,,2013-08-21 08:36:00,
2013-08-21 04:41:00,68.0,63.8,29.93,North,-999,-999.0,-999.0,88,-99.99,,,-99.99,,2013-08-21 08:41:00,
2013-08-21 04:46:00,67.8,63.6,29.93,North,-999,-999.0,-999.0,88,-99.99,,,-99.99,,2013-08-21 08:46:00,
2013-08-21 04:51:00,67.8,63.6,29.93,North,-999,-999.0,-999.0,88,-99.99,,,-99.99,,2013-08-21 08:51:00,
2013-08-21 04:56:00,67.8,63.5,29.93,North,-999,-999.0,-999.0,88,-99.99,,,-99.99,,2013-08-21 08:56:00,
2013-08-21 05:01:00,67.6,63.3,29.93,North,-999,-999.0,-999.0,87,-99.99,,,-99.99,,2013-08-21 09:01:00,
2013-08-21 05:06:00,67.6,63.3,29.93,North,-999,-999.0,-999.0,88,-99.99,,,-99.99,,2013-08-21 09:06:00,
2013-08-21 05:11:00,67.6,63.3,29.93,North,-999,-999.0,-999.0,88,-99.99,,,-99.99,,2013-08-21 09:11:00,
2013-08-21 05:16:00,67.6,63.4,29.93,North,-999,-999.0,-999.0,88,-99.99,,,-99.99,,2013-08-21 09:16:00,
2013-08-21 05:21:00,67.6,63.6,29.94,North,-999,-999.0,-999.0,88,-99.99,,,-99.99,,2013-08-21 09:21:00,
2013-08-21 05:26:00,67.4,63.4,29.94,North,-999,-999.0,-999.0,88,-99.99,,,-99.99,,2013-08-21 09:26:00,
2013-08-21 05:31:00,67.6,63.6,29.94,North,-999,-999.0,-999.0,88,-99.99,,,-99.99,,2013-08-21 09:31:00,
2013-08-21 05:36:00,67.6,63.6,29.94,North,-999,-999.0,-999.0,88,-99.99,,,-99.99,,2013-08-21 09:36:00,
2013-08-21 05:41:00,67.4,63.5,29.94,North,-999,-999.0,-999.0,88,-99.99,,,-99.99,,2013-08-21 09:41:00,
2013-08-21 05:46:00,67.4,63.3,29.94,North,-999,-999.0,-999.0,88,-99.99,,,-99.99,,2013-08-21 09:46:00,
2013-08-21 05:51:00,67.2,63.1,29.94,North,-999,-999.0,-999.0,88,-99.99,,,-99.99,,2013-08-21 09:51:00,
2013-08-21 05:56:00,67.2,63.1,29.94,North,-999,-999.0,-999.0,88,-99.99,,,-99.99,,2013-08-21 09:56:00,
2013-08-21 06:01:00,67.1,62.9,29.94,North,-999,-999.0,-999.0,88,-99.99,,,-99.99,,2013-08-21 10:01:00,
2013-08-21 06:06:00,67.1,63.1,29.94,North,-999,-999.0,-999.0,88,-99.99,,,-99.99,,2013-08-21 10:06:00,
2013-08-21 06:11:00,66.9,62.8,29.94,North,-999,-999.0,-999.0,88,-99.99,,,-99.99,,2013-08-21 10:11:00,
2013-08-21 06:16:00,67.1,63.0,29.95,North,-999,-999.0,-999.0,88,-99.99,,,-99.99,,2013-08-21 10:16:00,
2013-08-21 06:21:00,67.1,63.0,29.95,North,-999,-999.0,-999.0,88,-99.99,,,-99.99,,2013-08-21 10:21:00,
2013-08-21 06:26:00,67.1,63.0,29.95,North,-999,-999.0,-999.0,88,-99.99,,,-99.99,,2013-08-21 10:26:00,
2013-08-21 06:31:00,66.7,62.6,29.95,North,-999,-999.0,-999.0,88,-99.99,,,-99.99,,2013-08-21 10:31:00,
2013-08-21 06:36:00,66.7,62.6,29.95,North,-999,-999.0,-999.0,88,-99.99,,,-99.99,,2013-08-21 10:36:00,
2013-08-21 06:41:00,66.7,62.5,29.96,North,-999,-999.0,-999.0,88,-99.99,,,-99.99,,2013-08-21 10:41:00,
2013-08-21 06:46:00,66.9,62.7,29.96,North,-999,-999.0,-999.0,88,-99.99,,,-99.99,,2013-08-21 10:46:00,
2013-08-21 06:51:00,66.9,62.7,29.96,North,-999,-999.0,-999.0,88,-99.99,,,-99.99,,2013-08-21 10:51:00,
2013-08-21 06:56:00,66.9,62.9,29.96,North,-999,-999.0,-999.0,88,-99.99,,,-99.99,,2013-08-21 10:56:00,
2013-08-21 07:01:00,66.7,62.8,29.96,North,-999,-999.0,-999.0,89,-99.99,,,-99.99,,2013-08-21 11:01:00,
2013-08-21 07:06:00,66.7,62.9,29.96,North,-999,-999.0,-999.0,89,-99.99,,,-99.99,,2013-08-21 11:06:00,
2013-08-21 07:11:00,66.9,63.1,29.96,North,-999,-999.0,-999.0,89,-99.99,,,-99.99,,2013-08-21 11:11:00,
2013-08-21 07:16:00,66.9,63.1,29.96,North,-999,-999.0,-999.0,89,-99.99,,,-99.99,,2013-08-21 11:16:00,
2013-08-21 07:21:00,66.9,63.1,29.96,North,-999,-999.0,-999.0,89,-99.99,,,-99.99,,2013-08-21 11:21:00,
2013-08-21 07:26:00,67.1,63.2,29.96,North,-999,-999.0,-999.0,89,-99.99,,,-99.99,,2013-08-21 11:26:00,
2013-08-21 07:31:00,67.2,63.4,29.96,North,-999,-999.0,-999.0,89,-99.99,,,-99.99,,2013-08-21 11:31:00,
2013-08-21 07:36:00,67.6,63.7,29.96,North,-999,-999.0,-999.0,89,-99.99,,,-99.99,,2013-08-21 11:36:00,
2013-08-21 07:41:00,67.8,64.0,29.96,North,-999,-999.0,-999.0,89,-99.99,,,-99.99,,2013-08-21 11:41:00,
2013-08-21 07:46:00,68.1,64.1,29.96,North,-999,-999.0,-999.0,88,-99.99,,,-99.99,,2013-08-21 11:46:00,
2013-08-21 07:51:00,68.5,64.3,29.97,North,-999,-999.0,-999.0,88,-99.99,,,-99.99,,2013-08-21 11:51:00,
2013-08-21 07:56:00,68.7,64.2,29.97,North,-999,-999.0,-999.0,87,-99.99,,,-99.99,,2013-08-21 11:56:00,
2013-08-21 08:01:00,68.9,64.3,29.97,North,-999,-999.0,-999.0,87,-99.99,,,-99.99,,2013-08-21 12:01:00,
2013-08-21 08:06:00,69.2,64.5,29.96,North,-999,-999.0,-999.0,86,-99.99,,,-99.99,,2013-08-21 12:06:00,
2013-08-21 08:11:00,69.6,64.6,29.96,North,-999,-999.0,-999.0,86,-99.99,,,-99.99,,2013-08-21 12:11:00,
2013-08-21 08:16:00,69.8,64.8,29.96,North,-999,-999.0,-999.0,86,-99.99,,,-99.99,,2013-08-21 12:16:00,
2013-08-21 08:21:00,69.9,64.9,29.96,North,-999,-999.0,-999.0,86,-99.99,,,-99.99,,2013-08-21 12:21:00,
2013-08-21 08:26:00,70.1,65.0,29.96,North,-999,-999.0,-999.0,85,-99.99,,,-99.99,,2013-08-21 12:26:00,
2013-08-21 08:31:00,70.3,65.2,29.96,North,-999,-999.0,-999.0,85,-99.99,,,-99.99,,2013-08-21 12:31:00,
2013-08-21 08:36:00,70.7,65.5,29.96,North,-999,-999.0,-999.0,85,-99.99,,,-99.99,,2013-08-21 12:36:00,
2013-08-21 08:41:00,71.0,65.6,29.96,North,-999,-999.0,-999.0,84,-99.99,,,-99.99,,2013-08-21 12:41:00,
2013-08-21 08:46:00,71.4,65.8,29.96,North,-999,-999.0,-999.0,84,-99.99,,,-99.99,,2013-08-21 12:46:00,
2013-08-21 08:51:00,71.7,65.9,29.96,North,-999,-999.0,-999.0,83,-99.99,,,-99.99,,2013-08-21 12:51:00,
2013-08-21 08:56:00,71.9,65.9,29.96,North,-999,-999.0,-999.0,83,-99.99,,,-99.99,,2013-08-21 12:56:00,
2013-08-21 09:01:00,72.1,65.9,29.96,North,-999,-999.0,-999.0,82,-99.99,,,-99.99,,2013-08-21 13:01:00,
2013-08-21 09:06:00,72.3,66.1,29.96,North,-999,-999.0,-999.0,82,-99.99,,,-99.99,,2013-08-21 13:06:00,
2013-08-21 09:11:00,72.6,66.5,29.95,North,-999,-999.0,-999.0,82,-99.99,,,-99.99,,2013-08-21 13:11:00,
2013-08-21 09:16:00,73.0,66.7,29.95,North,-999,-999.0,-999.0,82,-99.99,,,-99.99,,2013-08-21 13:16:00,
2013-08-21 09:21:00,73.2,66.8,29.95,North,-999,-999.0,-999.0,82,-99.99,,,-99.99,,2013-08-21 13:21:00,
2013-08-21 09:26:00,73.5,66.8,29.95,North,-999,-999.0,-999.0,81,-99.99,,,-99.99,,2013-08-21 13:26:00,
2013-08-21 09:31:00,73.9,67.3,29.95,North,-999,-999.0,-999.0,81,-99.99,,,-99.99,,2013-08-21 13:31:00,
2013-08-21 09:36:00,74.3,67.5,29.95,North,-999,-999.0,-999.0,80,-99.99,,,-99.99,,2013-08-21 13:36:00,
2013-08-21 09:41:00,74.4,67.5,29.95,North,-999,-999.0,-999.0,80,-99.99,,,-99.99,,2013-08-21 13:41:00,
2013-08-21 09:46:00,74.6,67.8,29.94,North,-999,-999.0,-999.0,81,-99.99,,,-99.99,,2013-08-21 13:46:00,
2013-08-21 09:51:00,75.0,68.2,29.94,North,-999,-999.0,-999.0,80,-99.99,,,-99.99,,2013-08-21 13:51:00,
2013-08-21 09:56:00,75.2,68.3,29.94,North,-999,-999.0,-999.0,80,-99.99,,,-99.99,,2013-08-21 13:56:00,
2013-08-21 10:01:00,75.5,68.4,29.94,North,-999,-999.0,-999.0,80,-99.99,,,-99.99,,2013-08-21 14:01:00,
2013-08-21 10:06:00,75.7,68.7,29.94,North,-999,-999.0,-999.0,80,-99.99,,,-99.99,,2013-08-21 14:06:00,
2013-08-21 10:11:00,76.1,68.7,29.94,North,-999,-999.0,-999.0,79,-99.99,,,-99.99,,2013-08-21 14:11:00,
2013-08-21 10:16:00,76.4,68.9,29.94,North,-999,-999.0,-999.0,79,-99.99,,,-99.99,,2013-08-21 14:16:00,
2013-08-21 10:21:00,77.0,69.2,29.94,North,-999,-999.0,-999.0,78,-99.99,,,-99.99,,2013-08-21 14:21:00,
2013-08-21 10:26:00,77.3,69.6,29.94,North,-999,-999.0,-999.0,78,-99.99,,,-99.99,,2013-08-21 14:26:00,
2013-08-21 10:31:00,77.9,70.3,29.94,North,-999,-999.0,-999.0,78,-99.99,,,-99.99,,2013-08-21 14:31:00,
2013-08-21 10:36:00,78.2,70.2,29.94,North,-999,-999.0,-999.0,77,-99.99,,,-99.99,,2013-08-21 14:36:00,
2013-08-21 10:41:00,78.8,70.7,29.94,North,-999,-999.0,-999.0,77,-99.99,,,-99.99,,2013-08-21 14:41:00,
2013-08-21 10:46:00,79.1,70.7,29.93,North,-999,-999.0,-999.0,76,-99.99,,,-99.99,,2013-08-21 14:46:00,
2013-08-21 10:51:00,79.8,71.6,29.93,North,-999,-999.0,-999.0,77,-99.99,,,-99.99,,2013-08-21 14:51:00,
2013-08-21 10:56:00,80.2,71.6,29.93,North,-999,-999.0,-999.0,75,-99.99,,,-99.99,,2013-08-21 14:56:00,
2013-08-21 11:01:00,80.2,71.4,29.92,North,-999,-999.0,-999.0,75,-99.99,,,-99.99,,2013-08-21 15:01:00,
2013-08-21 11:06:00,80.6,72.0,29.92,North,-999,-999.0,-999.0,76,-99.99,,,-99.99,,2013-08-21 15:06:00,
2013-08-21 11:11:00,80.9,71.5,29.92,North,-999,-999.0,-999.0,73,-99.99,,,-99.99,,2013-08-21 15:11:00,
2013-08-21 11:16:00,81.1,72.2,29.92,North,-999,-999.0,-999.0,75,-99.99,,,-99.99,,2013-08-21 15:16:00,
2013-08-21 11:21:00,81.3,72.3,29.92,North,-999,-999.0,-999.0,74,-99.99,,,-99.99,,2013-08-21 15:21:00,
2013-08-21 11:26:00,81.6,72.2,29.92,North,-999,-999.0,-999.0,73,-99.99,,,-99.99,,2013-08-21 15:26:00,
2013-08-21 11:31:00,82.0,72.1,29.92,North,-999,-999.0,-999.0,72,-99.99,,,-99.99,,2013-08-21 15:31:00,
2013-08-21 11:36:00,82.4,73.3,29.91,North,-999,-999.0,-999.0,74,-99.99,,,-99.99,,2013-08-21 15:36:00,
2013-08-21 11:41:00,82.5,72.8,29.91,North,-999,-999.0,-999.0,72,-99.99,,,-99.99,,2013-08-21 15:41:00,
2013-08-21 11:46:00,82.7,72.8,29.91,North,-999,-999.0,-999.0,72,-99.99,,,-99.99,,2013-08-21 15:46:00,
2013-08-21 11:51:00,83.1,72.5,29.91,North,-999,-999.0,-999.0,70,-99.99,,,-99.99,,2013-08-21 15:51:00,
2013-08-21 11:56:00,83.1,72.8,29.91,North,-999,-999.0,-999.0,71,-99.99,,,-99.99,,2013-08-21 15:56:00,
2013-08-21 12:01:00,83.3,72.7,29.91,North,-999,-999.0,-999.0,70,-99.99,,,-99.99,,2013-08-21 16:01:00,
2013-08-21 12:06:00,83.1,72.9,29.91,North,-999,-999.0,-999.0,71,-99.99,,,-99.99,,2013-08-21 16:06:00,
2013-08-21 12:11:00,83.3,73.2,29.90,North,-999,-999.0,-999.0,71,-99.99,,,-99.99,,2013-08-21 16:11:00,
2013-08-21 12:16:00,83.1,72.8,29.90,North,-999,-999.0,-999.0,71,-99.99,,,-99.99,,2013-08-21 16:16:00,
2013-08-21 12:21:00,83.1,72.9,29.90,North,-999,-999.0,-999.0,71,-99.99,,,-99.99,,2013-08-21 16:21:00,
2013-08-21 12:26:00,83.3,73.1,29.90,North,-999,-999.0,-999.0,71,-99.99,,,-99.99,,2013-08-21 16:26:00,
2013-08-21 12:31:00,83.6,73.3,29.89,North,-999,-999.0,-999.0,71,-99.99,,,-99.99,,2013-08-21 16:31:00,
2013-08-21 12:36:00,84.2,73.5,29.90,North,-999,-999.0,-999.0,70,-99.99,,,-99.99,,2013-08-21 16:36:00,
2013-08-21 12:41:00,84.7,73.5,29.89,North,-999,-999.0,-999.0,68,-99.99,,,-99.99,,2013-08-21 16:41:00,
2013-08-21 12:46:00,85.1,73.4,29.89,North,-999,-999.0,-999.0,67,-99.99,,,-99.99,,2013-08-21 16:46:00,
2013-08-21 12:51:00,85.2,73.7,29.89,North,-999,-999.0,-999.0,67,-99.99,,,-99.99,,2013-08-21 16:51:00,
2013-08-21 12:56:00,85.4,73.7,29.89,North,-999,-999.0,-999.0,67,-99.99,,,-99.99,,2013-08-21 16:56:00,
2013-08-21 13:01:00,85.4,72.9,29.88,North,-999,-999.0,-999.0,65,-99.99,,,-99.99,,2013-08-21 17:01:00,
2013-08-21 13:06:00,85.6,73.3,29.88,North,-999,-999.0,-999.0,65,-99.99,,,-99.99,,2013-08-21 17:06:00,
2013-08-21 13:11:00,85.8,73.5,29.88,North,-999,-999.0,-999.0,65,-99.99,,,-99.99,,2013-08-21 17:11:00,
2013-08-21 13:16:00,86.0,73.9,29.87,North,-999,-999.0,-999.0,66,-99.99,,,-99.99,,2013-08-21 17:16:00,
2013-08-21 13:21:00,86.0,74.5,29.87,North,-999,-999.0,-999.0,67,-99.99,,,-99.99,,2013-08-21 17:21:00,
2013-08-21 13:26:00,86.1,73.8,29.87,North,-999,-999.0,-999.0,65,-99.99,,,-99.99,,2013-08-21 17:26:00,
2013-08-21 13:31:00,86.3,74.3,29.87,North,-999,-999.0,-999.0,66,-99.99,,,-99.99,,2013-08-21 17:31:00,
2013-08-21 13:36:00,86.3,73.2,29.87,North,-999,-999.0,-999.0,63,-99.99,,,-99.99,,2013-08-21 17:36:00,
2013-08-21 13:41:00,86.9,73.8,29.87,North,-999,-999.0,-999.0,63,-99.99,,,-99.99,,2013-08-21 17:41:00,
2013-08-21 13:46:00,86.5,73.9,29.86,North,-999,-999.0,-999.0,64,-99.99,,,-99.99,,2013-08-21 17:46:00,
2013-08-21 13:51:00,86.5,74.3,29.86,North,-999,-999.0,-999.0,66,-99.99,,,-99.99,,2013-08-21 17:51:00,
2013-08-21 13:56:00,86.9,74.0,29.86,North,-999,-999.0,-999.0,63,-99.99,,,-99.99,,2013-08-21 17:56:00,
2013-08-21 14:01:00,86.9,74.1,29.86,North,-999,-999.0,-999.0,64,-99.99,,,-99.99,,2013-08-21 18:01:00,
2013-08-21 14:06:00,87.0,75.0,29.85,North,-999,-999.0,-999.0,66,-99.99,,,-99.99,,2013-08-21 18:06:00,
2013-08-21 14:11:00,87.0,73.3,29.85,North,-999,-999.0,-999.0,61,-99.99,,,-99.99,,2013-08-21 18:11:00,
2013-08-21 14:16:00,87.0,73.1,29.85,North,-999,-999.0,-999.0,61,-99.99,,,-99.99,,2013-08-21 18:16:00,
2013-08-21 14:21:00,87.0,73.8,29.84,North,-999,-999.0,-999.0,63,-99.99,,,-99.99,,2013-08-21 18:21:00,
2013-08-21 14:26:00,86.7,73.9,29.84,North,-999,-999.0,-999.0,64,-99.99,,,-99.99,,2013-08-21 18:26:00,
2013-08-21 14:31:00,86.5,73.1,29.84,North,-999,-999.0,-999.0,62,-99.99,,,-99.99,,2013-08-21 18:31:00,
2013-08-21 14:36:00,86.5,73.8,29.84,North,-999,-999.0,-999.0,64,-99.99,,,-99.99,,2013-08-21 18:36:00,
2013-08-21 14:41:00,86.5,73.2,29.83,North,-999,-999.0,-999.0,62,-99.99,,,-99.99,,2013-08-21 18:41:00,
2013-08-21 14:46:00,86.9,73.4,29.83,North,-999,-999.0,-999.0,62,-99.99,,,-99.99,,2013-08-21 18:46:00,
2013-08-21 14:51:00,87.4,73.3,29.83,North,-999,-999.0,-999.0,60,-99.99,,,-99.99,,2013-08-21 18:51:00,
2013-08-21 14:56:00,87.6,73.6,29.82,North,-999,-999.0,-999.0,61,-99.99,,,-99.99,,2013-08-21 18:56:00,
2013-08-21 15:01:00,87.6,73.6,29.82,North,-999,-999.0,-999.0,60,-99.99,,,-99.99,,2013-08-21 19:01:00,
2013-08-21 15:06:00,87.0,73.3,29.82,North,-999,-999.0,-999.0,61,-99.99,,,-99.99,,2013-08-21 19:06:00,
2013-08-21 15:11:00,87.2,73.5,29.82,North,-999,-999.0,-999.0,61,-99.99,,,-99.99,,2013-08-21 19:11:00,
2013-08-21 15:16:00,87.2,73.5,29.82,North,-999,-999.0,-999.0,61,-99.99,,,-99.99,,2013-08-21 19:16:00,
2013-08-21 15:21:00,87.2,73.7,29.82,North,-999,-999.0,-999.0,62,-99.99,,,-99.99,,2013-08-21 19:21:00,
2013-08-21 15:26:00,87.4,73.3,29.81,North,-999,-999.0,-999.0,60,-99.99,,,-99.99,,2013-08-21 19:26:00,
2013-08-21 15:31:00,87.4,73.7,29.81,North,-999,-999.0,-999.0,61,-99.99,,,-99.99,,2013-08-21 19:31:00,
2013-08-21 15:36:00,87.6,72.8,29.81,North,-999,-999.0,-999.0,58,-99.99,,,-99.99,,2013-08-21 19:36:00,
2013-08-21 15:41:00,87.8,72.9,29.81,North,-999,-999.0,-999.0,58,-99.99,,,-99.99,,2013-08-21 19:41:00,
2013-08-21 15:46:00,87.8,72.8,29.81,North,-999,-999.0,-999.0,58,-99.99,,,-99.99,,2013-08-21 19:46:00,
2013-08-21 15:51:00,87.6,72.9,29.81,North,-999,-999.0,-999.0,58,-99.99,,,-99.99,,2013-08-21 19:51:00,
2013-08-21 15:56:00,87.8,72.9,29.81,North,-999,-999.0,-999.0,58,-99.99,,,-99.99,,2013-08-21 19:56:00,
2013-08-21 16:01:00,87.9,73.2,29.80,North,-999,-999.0,-999.0,59,-99.99,,,-99.99,,2013-08-21 20:01:00,
2013-08-21 16:06:00,87.9,73.1,29.80,North,-999,-999.0,-999.0,58,-99.99,,,-99.99,,2013-08-21 20:06:00,
2013-08-21 16:11:00,87.9,72.9,29.80,North,-999,-999.0,-999.0,58,-99.99,,,-99.99,,2013-08-21 20:11:00,
2013-08-21 16:16:00,87.8,72.9,29.80,North,-999,-999.0,-999.0,58,-99.99,,,-99.99,,2013-08-21 20:16:00,
2013-08-21 16:21:00,87.0,72.4,29.80,North,-999,-999.0,-999.0,59,-99.99,,,-99.99,,2013-08-21 20:21:00,
2013-08-21 16:26:00,86.9,72.6,29.79,North,-999,-999.0,-999.0,60,-99.99,,,-99.99,,2013-08-21 20:26:00,
2013-08-21 16:31:00,86.9,72.5,29.79,North,-999,-999.0,-999.0,60,-99.99,,,-99.99,,2013-08-21 20:31:00,
2013-08-21 16:36:00,87.0,72.1,29.79,North,-999,-999.0,-999.0,58,-99.99,,,-99.99,,2013-08-21 20:36:00,
2013-08-21 16:41:00,87.2,72.6,29.79,North,-999,-999.0,-999.0,59,-99.99,,,-99.99,,2013-08-21 20:41:00,
2013-08-21 16:46:00,87.4,72.6,29.79,North,-999,-999.0,-999.0,58,-99.99,,,-99.99,,2013-08-21 20:46:00,
2013-08-21 16:51:00,87.0,72.8,29.79,North,-999,-999.0,-999.0,60,-99.99,,,-99.99,,2013-08-21 20:51:00,
2013-08-21 16:56:00,87.0,72.1,29.79,North,-999,-999.0,-999.0,58,-99.99,,,-99.99,,2013-08-21 20:56:00,
2013-08-21 17:01:00,87.2,71.8,29.79,North,-999,-999.0,-999.0,57,-99.99,,,-99.99,,2013-08-21 21:01:00,
2013-08-21 17:06:00,87.0,72.2,29.79,North,-999,-999.0,-999.0,58,-99.99,,,-99.99,,2013-08-21 21:06:00,
2013-08-21 17:11:00,86.7,72.3,29.79,North,-999,-999.0,-999.0,60,-99.99,,,-99.99,,2013-08-21 21:11:00,
2013-08-21 17:16:00,86.5,72.0,29.79,North,-999,-999.0,-999.0,59,-99.99,,,-99.99,,2013-08-21 21:16:00,
2013-08-21 17:21:00,86.5,72.1,29.79,North,-999,-999.0,-999.0,60,-99.99,,,-99.99,,2013-08-21 21:21:00,
2013-08-21 17:26:00,86.5,72.7,29.78,North,-999,-999.0,-999.0,61,-99.99,,,-99.99,,2013-08-21 21:26:00,
2013-08-21 17:31:00,86.3,72.7,29.78,North,-999,-999.0,-999.0,62,-99.99,,,-99.99,,2013-08-21 21:31:00,
2013-08-21 17:36:00,86.1,72.6,29.79,North,-999,-999.0,-999.0,62,-99.99,,,-99.99,,2013-08-21 21:36:00,
2013-08-21 17:41:00,85.6,72.4,29.79,North,-999,-999.0,-999.0,63,-99.99,,,-99.99,,2013-08-21 21:41:00,
2013-08-21 17:46:00,85.4,72.6,29.79,North,-999,-999.0,-999.0,64,-99.99,,,-99.99,,2013-08-21 21:46:00,
2013-08-21 17:51:00,85.4,72.6,29.79,North,-999,-999.0,-999.0,64,-99.99,,,-99.99,,2013-08-21 21:51:00,
2013-08-21 17:56:00,85.6,73.2,29.79,North,-999,-999.0,-999.0,65,-99.99,,,-99.99,,2013-08-21 21:56:00,
2013-08-21 18:01:00,85.4,73.1,29.79,North,-999,-999.0,-999.0,65,-99.99,,,-99.99,,2013-08-21 22:01:00,
2013-08-21 18:06:00,85.4,72.8,29.79,North,-999,-999.0,-999.0,64,-99.99,,,-99.99,,2013-08-21 22:06:00,
2013-08-21 18:11:00,85.2,72.8,29.79,North,-999,-999.0,-999.0,65,-99.99,,,-99.99,,2013-08-21 22:11:00,
2013-08-21 18:16:00,85.1,73.2,29.79,North,-999,-999.0,-999.0,66,-99.99,,,-99.99,,2013-08-21 22:16:00,
2013-08-21 18:21:00,84.9,73.0,29.79,North,-999,-999.0,-999.0,66,-99.99,,,-99.99,,2013-08-21 22:21:00,
2013-08-21 18:26:00,84.9,73.0,29.79,North,-999,-999.0,-999.0,66,-99.99,,,-99.99,,2013-08-21 22:26:00,
2013-08-21 18:31:00,84.9,73.1,29.79,North,-999,-999.0,-999.0,67,-99.99,,,-99.99,,2013-08-21 22:31:00,
2013-08-21 18:36:00,84.7,73.0,29.79,North,-999,-999.0,-999.0,67,-99.99,,,-99.99,,2013-08-21 22:36:00,
2013-08-21 18:41:00,84.3,72.8,29.79,North,-999,-999.0,-999.0,67,-99.99,,,-99.99,,2013-08-21 22:41:00,
2013-08-21 18:46:00,84.3,72.9,29.79,North,-999,-999.0,-999.0,68,-99.99,,,-99.99,,2013-08-21 22:46:00,
2013-08-21 18:51:00,84.2,72.9,29.79,North,-999,-999.0,-999.0,68,-99.99,,,-99.99,,2013-08-21 22:51:00,
2013-08-21 18:56:00,84.0,72.9,29.79,North,-999,-999.0,-999.0,68,-99.99,,,-99.99,,2013-08-21 22:56:00,
2013-08-21 19:01:00,84.0,72.9,29.79,North,-999,-999.0,-999.0,69,-99.99,,,-99.99,,2013-08-21 23:01:00,
2013-08-21 19:06:00,83.8,72.9,29.79,North,-999,-999.0,-999.0,69,-99.99,,,-99.99,,2013-08-21 23:06:00,
2013-08-21 19:11:00,83.6,72.8,29.79,North,-999,-999.0,-999.0,69,-99.99,,,-99.99,,2013-08-21 23:11:00,
2013-08-21 19:16:00,83.3,72.6,29.79,North,-999,-999.0,-999.0,70,-99.99,,,-99.99,,2013-08-21 23:16:00,
2013-08-21 19:21:00,83.3,72.8,29.79,North,-999,-999.0,-999.0,70,-99.99,,,-99.99,,2013-08-21 23:21:00,
2013-08-21 19:26:00,83.3,72.9,29.79,North,-999,-999.0,-999.0,71,-99.99,,,-99.99,,2013-08-21 23:26:00,
2013-08-21 19:31:00,83.1,72.9,29.79,North,-999,-999.0,-999.0,71,-99.99,,,-99.99,,2013-08-21 23:31:00,
2013-08-21 19:36:00,82.9,73.0,29.79,North,-999,-999.0,-999.0,72,-99.99,,,-99.99,,2013-08-21 23:36:00,
2013-08-21 19:41:00,82.7,72.9,29.79,North,-999,-999.0,-999.0,72,-99.99,,,-99.99,,2013-08-21 23:41:00,
2013-08-21 19:46:00,82.4,72.8,29.80,North,-999,-999.0,-999.0,73,-99.99,,,-99.99,,2013-08-21 23:46:00,
2013-08-21 19:51:00,82.2,72.8,29.80,North,-999,-999.0,-999.0,73,-99.99,,,-99.99,,2013-08-21 23:51:00,
2013-08-21 19:56:00,82.0,72.7,29.81,North,-999,-999.0,-999.0,73,-99.99,,,-99.99,,2013-08-21 23:56:00,
2013-08-21 20:01:00,81.8,72.5,29.80,North,-999,-999.0,-999.0,73,-99.99,,,-99.99,,2013-08-22 00:01:00,
2013-08-21 20:06:00,81.8,72.5,29.81,North,-999,-999.0,-999.0,74,-99.99,,,-99.99,,2013-08-22 00:06:00,
2013-08-21 20:11:00,81.8,72.6,29.81,North,-999,-999.0,-999.0,74,-99.99,,,-99.99,,2013-08-22 00:11:00,
2013-08-21 20:16:00,81.6,72.4,29.81,North,-999,-999.0,-999.0,74,-99.99,,,-99.99,,2013-08-22 00:16:00,
2013-08-21 20:21:00,81.6,72.3,29.81,North,-999,-999.0,-999.0,74,-99.99,,,-99.99,,2013-08-22 00:21:00,
2013-08-21 20:26:00,81.6,72.4,29.81,North,-999,-999.0,-999.0,74,-99.99,,,-99.99,,2013-08-22 00:26:00,
2013-08-21 20:31:00,81.5,72.5,29.81,North,-999,-999.0,-999.0,74,-99.99,,,-99.99,,2013-08-22 00:31:00,
2013-08-21 20:36:00,81.3,72.4,29.81,North,-999,-999.0,-999.0,75,-99.99,,,-99.99,,2013-08-22 00:36:00,
2013-08-21 20:41:00,81.3,72.5,29.81,North,-999,-999.0,-999.0,75,-99.99,,,-99.99,,2013-08-22 00:41:00,
2013-08-21 20:46:00,80.9,72.2,29.81,North,-999,-999.0,-999.0,75,-99.99,,,-99.99,,2013-08-22 00:46:00,
2013-08-21 20:51:00,80.9,72.2,29.82,North,-999,-999.0,-999.0,75,-99.99,,,-99.99,,2013-08-22 00:51:00,
2013-08-21 20:56:00,80.7,72.0,29.82,North,-999,-999.0,-999.0,75,-99.99,,,-99.99,,2013-08-22 00:56:00,
2013-08-21 21:01:00,80.7,72.1,29.82,North,-999,-999.0,-999.0,76,-99.99,,,-99.99,,2013-08-22 01:01:00,
2013-08-21 21:06:00,80.6,72.2,29.81,North,-999,-999.0,-999.0,76,-99.99,,,-99.99,,2013-08-22 01:06:00,
2013-08-21 21:11:00,80.6,72.2,29.82,North,-999,-999.0,-999.0,76,-99.99,,,-99.99,,2013-08-22 01:11:00,
2013-08-21 21:16:00,80.4,72.1,29.82,North,-999,-999.0,-999.0,76,-99.99,,,-99.99,,2013-08-22 01:16:00,
2013-08-21 21:21:00,80.4,72.2,29.82,North,-999,-999.0,-999.0,77,-99.99,,,-99.99,,2013-08-22 01:21:00,
2013-08-21 21:26:00,80.0,71.8,29.82,North,-999,-999.0,-999.0,77,-99.99,,,-99.99,,2013-08-22 01:26:00,
2013-08-21 21:31:00,80.2,72.0,29.81,North,-999,-999.0,-999.0,77,-99.99,,,-99.99,,2013-08-22 01:31:00,
2013-08-21 21:36:00,80.2,72.0,29.81,North,-999,-999.0,-999.0,77,-99.99,,,-99.99,,2013-08-22 01:36:00,
2013-08-21 21:41:00,80.0,72.0,29.81,North,-999,-999.0,-999.0,77,-99.99,,,-99.99,,2013-08-22 01:41:00,
2013-08-21 21:46:00,80.2,72.3,29.81,North,-999,-999.0,-999.0,77,-99.99,,,-99.99,,2013-08-22 01:46:00,
2013-08-21 21:51:00,80.0,71.8,29.82,North,-999,-999.0,-999.0,77,-99.99,,,-99.99,,2013-08-22 01:51:00,
2013-08-21 21:56:00,80.0,71.6,29.81,North,-999,-999.0,-999.0,76,-99.99,,,-99.99,,2013-08-22 01:56:00,
2013-08-21 22:01:00,80.0,71.7,29.82,North,-999,-999.0,-999.0,76,-99.99,,,-99.99,,2013-08-22 02:01:00,
2013-08-21 22:06:00,79.8,71.7,29.82,North,-999,-999.0,-999.0,77,-99.99,,,-99.99,,2013-08-22 02:06:00,
2013-08-21 22:11:00,79.7,71.9,29.82,North,-999,-999.0,-999.0,78,-99.99,,,-99.99,,2013-08-22 02:11:00,
2013-08-21 22:16:00,79.3,71.6,29.83,North,-999,-999.0,-999.0,78,-99.99,,,-99.99,,2013-08-22 02:16:00,
2013-08-21 22:21:00,78.8,70.6,29.83,North,-999,-999.0,-999.0,77,-99.99,,,-99.99,,2013-08-22 02:21:00,
2013-08-21 22:26:00,77.9,69.5,29.82,North,-999,-999.0,-999.0,76,-99.99,,,-99.99,,2013-08-22 02:26:00,
2013-08-21 22:31:00,77.3,68.8,29.82,North,-999,-999.0,-999.0,76,-99.99,,,-99.99,,2013-08-22 02:31:00,
2013-08-21 22:36:00,77.0,68.9,29.81,North,-999,-999.0,-999.0,77,-99.99,,,-99.99,,2013-08-22 02:36:00,
2013-08-21 22:41:00,76.8,68.9,29.81,North,-999,-999.0,-999.0,78,-99.99,,,-99.99,,2013-08-22 02:41:00,
2013-08-21 22:46:00,76.6,68.7,29.82,North,-999,-999.0,-999.0,78,-99.99,,,-99.99,,2013-08-22 02:46:00,
2013-08-21 22:51:00,76.4,68.5,29.82,North,-999,-999.0,-999.0,77,-99.99,,,-99.99,,2013-08-22 02:51:00,
2013-08-21 22:56:00,76.2,68.1,29.82,North,-999,-999.0,-999.0,77,-99.99,,,-99.99,,2013-08-22 02:56:00,
2013-08-21 23:01:00,76.2,68.2,29.82,North,-999,-999.0,-999.0,77,-99.99,,,-99.99,,2013-08-22 03:01:00,
2013-08-21 23:06:00,76.1,68.2,29.82,North,-999,-999.0,-999.0,78,-99.99,,,-99.99,,2013-08-22 03:06:00,
2013-08-21 23:11:00,75.9,68.0,29.82,North,-999,-999.0,-999.0,77,-99.99,,,-99.99,,2013-08-22 03:11:00,
2013-08-21 23:16:00,75.5,67.2,29.82,North,-999,-999.0,-999.0,76,-99.99,,,-99.99,,2013-08-22 03:16:00,
2013-08-21 23:21:00,75.5,67.4,29.82,North,-999,-999.0,-999.0,77,-99.99,,,-99.99,,2013-08-22 03:21:00,
2013-08-21 23:26:00,75.5,67.6,29.82,North,-999,-999.0,-999.0,77,-99.99,,,-99.99,,2013-08-22 03:26:00,
2013-08-21 23:31:00,75.5,67.7,29.81,North,-999,-999.0,-999.0,78,-99.99,,,-99.99,,2013-08-22 03:31:00,
2013-08-21 23:36:00,75.5,67.9,29.81,North,-999,-999.0,-999.0,78,-99.99,,,-99.99,,2013-08-22 03:36:00,
2013-08-21 23:41:00,75.3,67.9,29.81,North,-999,-999.0,-999.0,79,-99.99,,,-99.99,,2013-08-22 03:41:00,
2013-08-21 23:46:00,75.3,68.5,29.81,North,-999,-999.0,-999.0,81,-99.99,,,-99.99,,2013-08-22 03:46:00,
2013-08-21 23:51:00,75.3,68.7,29.81,North,-999,-999.0,-999.0,81,-99.99,,,-99.99,,2013-08-22 03:51:00,
2013-08-21 23:56:00,75.3,68.9,29.82,North,-999,-999.0,-999.0,82,-99.99,,,-99.99,,2013-08-22 03:56:00,